Погода в Педерналесе

Доминиканская Республика     18°02′08″N   71°44′38″W
темп.,
°C
ветер,
м/с
пор.,
м/с
влажн.,
%
обл.,
%
осадки,
мм/ч
давл.,
гПа
погр.,
м
16 мая, вс
вс1623:00+26в34755 1.8 1015221
02:00+26св22714 2.6 1014182
05:00+25всв11663 0.1 1014163
08:00+26в126448 0.3 1016310
11:00+28юз236218 0.0 1016655
14:00+28ююз336327 0.7 1014767
17:00+28ююз336631 0.4 1013749
20:00+27юв457310 2.3 1014358
17 мая, пн
пн1723:00+26вюв34754 2.4 1016261
02:00+25в23715 3.1 1014221
05:00+25в22708 0.1 1014211
08:00+26в12645 0.1 1015330
11:00+29ююз445934 0.0 1016741
14:00+30ю44557 0.1 1014733
17:00+29ююв665766 0.1 1013617
20:00+26юв56715 0.1 1015481
18 мая, вт
вт1823:00+26в34705 0.0 1016267
02:00+25в23675 0.0 1015194
05:00+25всв22624 0.0 1015153
08:00+26в015781 0.0 1016281
11:00+28юз235979 0.0 1016663
14:00+29ю245576 0.0 1014745
17:00+29ю346013 0.0 1013612
20:00+26юв6773100 0.1 1014465
19 мая, ср
ср1923:00+26в236915 0.1 1016221
02:00+25в23645 0.1 1015198
05:00+25св22605 0.0 1014167
08:00+26всв11585 0.0 1015285
11:00+28юз336010 0.0 1016697
14:00+29ююз336214 0.1 1014806
17:00+29ююв3463100 0.3 1012533
20:00+26юв4576100 1.4 1014252
20 мая, чт
чт2023:00+26в2372100 1.5 1015142
02:00+26всв126946 2.1 1014179
05:00+25в126829 0.0 1013197
08:00+26вюв126430 0.0 1014340
11:00+29ююв35597 0.2 1014713
14:00+30юв895750 1.4 1013777
17:00+29юв8957100 0.6 1012563
20:00+27вюв4572100 0.8 1014216